COSMOS 1691 DEB, 43318

Orbit data source: Space-Track

COSMOS 1691 DEB, 43318 is space debris in LEO originally from a launch on Wed, 09 Oct 1985 UTC launched from the Plesetsk Missile And Space Complex (PKMTR). Debris objects in space refer to the collection of defunct objects orbiting the Earth. Examples of debris include non-operational satellites, rocket bodies, and fragments generated from explosions, collisions, or faulty payload assembly.

Loading next visibility...
Identifier
43318, 1985-094AC
Orbit
LEO
Country
Flag of CISCIS
Related business
Manufacturer
Unknown
Mission
Spacecraft
Bus & Motor
Unknown
Mass
Unknown
Launch date (UTC)
1985-10-09 (40 years ago)
Launch vehicle
Unknown
Launch site
Plesetsk Missile And Space Complex (PKMTR)
Object type
Payload
Rocket body
Debris
Shape & HBR
Unknown
Radar Cross Section
Small (<0.1 m²)

Expand to show TLE details & history
Last TLE update: 1 year ago

TLE from 1 year ago
0 COSMOS 1691 DEB
1 43318U 85094AC  24127.44030301  .00001074  00000-0  45894-2 0  9990
2 43318  82.5844 189.0068 0035168 166.8249 193.3780 12.81161065445772
Epoch: 2024-05-06T10:34Z
TLE epoch observation values (Epoch: 2024-05-06T10:34:02.18Z)
Latitude
0.00003°
Longitude
165.71954°
Altitude
1,365.968 km
Speed
7.163 km/s
True Right ascension
12h 36m 01s
True Declination
0° 00' 00"
Sunlit
Object was in full shadow at epoch
Visualization orbit readout
Latitude
Unknown
Longitude
Unknown
Altitude
Unknown
Speed
Unknown
Apparent Right ascension
Unknown
Apparent Declination
Unknown
Sunlit
N/A
Visualization observer readout
Local Sidereal Time
22:12:15
Azimuth
Unknown
Elevation
Unknown
Doppler factor
Unknown
Orbital elements
Apogee altitude
1,361.222 km
Perigee altitude
1,306.977 km
Semi-major axis
7,712.236 km
Eccentricity
0.00352
Inclination
82.5844°
RAAN
189.0068°
Arg. of periapsis
166.8249°
True anomaly
193.28515°
Mean anomaly
193.378°
Eccentric anomaly
193.33154°
Mean motion
3.20459 °/min
Orbital period
112.34 mins
BSTAR
0.0045894
Loading maneuver chart data...
Computing Atmospheric mass density...
Loading historical data...
Loading historical data...
Loading historical data...
Loading historical data...
Loading historical data...
Loading historical data...
Loading historical data...

Documentation

Showing up to 5 results
|